Year,Month,Day,Hour,Minute,Value (Times are PST for temperature in C)
2017,03,16,00,00,7.20
2017,03,16,00,01,7.10
2017,03,16,00,02,7.10
2017,03,16,00,03,7.10
2017,03,16,00,04,7.10
2017,03,16,00,05,7.10
2017,03,16,00,06,7.10
2017,03,16,00,07,7.10
2017,03,16,00,08,7.20
2017,03,16,00,09,7.20
2017,03,16,00,10,7.20
2017,03,16,00,11,7.20
2017,03,16,00,12,7.20
2017,03,16,00,13,7.20
2017,03,16,00,14,7.20
2017,03,16,00,15,7.20
2017,03,16,00,16,7.30
2017,03,16,00,17,7.30
2017,03,16,00,18,7.30
2017,03,16,00,19,7.30
2017,03,16,00,20,7.40
2017,03,16,00,21,7.40
2017,03,16,00,22,7.40
2017,03,16,00,23,7.40
2017,03,16,00,24,7.40
2017,03,16,00,25,7.40
2017,03,16,00,26,7.40
2017,03,16,00,27,7.40
2017,03,16,00,28,7.40
2017,03,16,00,29,7.40
2017,03,16,00,30,7.40
2017,03,16,00,31,7.30
2017,03,16,00,32,7.30
2017,03,16,00,33,7.30
2017,03,16,00,34,7.30
2017,03,16,00,35,7.30
2017,03,16,00,36,7.20
2017,03,16,00,37,7.20
2017,03,16,00,38,7.20
2017,03,16,00,39,7.20
2017,03,16,00,40,7.20
2017,03,16,00,41,7.10
2017,03,16,00,42,7.10
2017,03,16,00,43,7.00
2017,03,16,00,44,6.90
2017,03,16,00,45,6.90
2017,03,16,00,46,6.80
2017,03,16,00,47,6.80
2017,03,16,00,48,6.80
2017,03,16,00,49,6.80
2017,03,16,00,50,6.80
2017,03,16,00,51,6.80
2017,03,16,00,52,6.80
2017,03,16,00,53,6.80
2017,03,16,00,54,6.90
2017,03,16,00,55,6.90
2017,03,16,00,56,6.90
2017,03,16,00,57,7.00
2017,03,16,00,58,7.00
2017,03,16,00,59,7.00
2017,03,16,01,00,7.00
2017,03,16,01,01,7.00
2017,03,16,01,02,7.00
2017,03,16,01,03,7.00
2017,03,16,01,04,7.10
2017,03,16,01,05,7.10
2017,03,16,01,06,7.10
2017,03,16,01,07,7.10
2017,03,16,01,08,7.10
2017,03,16,01,09,7.10
2017,03,16,01,10,7.10
2017,03,16,01,11,7.10
2017,03,16,01,12,7.10
2017,03,16,01,13,7.00
2017,03,16,01,14,7.00
2017,03,16,01,15,6.90
2017,03,16,01,16,6.90
2017,03,16,01,17,6.80
2017,03,16,01,18,6.90
2017,03,16,01,19,6.90
2017,03,16,01,20,6.90
2017,03,16,01,21,6.90
2017,03,16,01,22,6.80
2017,03,16,01,23,6.80
2017,03,16,01,24,6.70
2017,03,16,01,25,6.70
2017,03,16,01,26,6.60
2017,03,16,01,27,6.60
2017,03,16,01,28,6.60
2017,03,16,01,29,6.60
2017,03,16,01,30,6.60
2017,03,16,01,31,6.60
2017,03,16,01,32,6.60
2017,03,16,01,33,6.60
2017,03,16,01,34,6.60
2017,03,16,01,35,6.60
2017,03,16,01,36,6.60
2017,03,16,01,37,6.60
2017,03,16,01,38,6.60
2017,03,16,01,39,6.60
2017,03,16,01,40,6.50
2017,03,16,01,41,6.50
2017,03,16,01,42,6.50
2017,03,16,01,43,6.50
2017,03,16,01,44,6.50
2017,03,16,01,45,6.50
2017,03,16,01,46,6.50
2017,03,16,01,47,6.60
2017,03,16,01,48,6.60
2017,03,16,01,49,6.60
2017,03,16,01,50,6.60
2017,03,16,01,51,6.60
2017,03,16,01,52,6.60
2017,03,16,01,53,6.60
2017,03,16,01,54,6.50
2017,03,16,01,55,6.50
2017,03,16,01,56,6.40
2017,03,16,01,57,6.50
2017,03,16,01,58,6.40
2017,03,16,01,59,6.40
2017,03,16,02,00,6.40
2017,03,16,02,01,6.30
2017,03,16,02,02,6.30
2017,03,16,02,03,6.30
2017,03,16,02,04,6.30
2017,03,16,02,05,6.30
2017,03,16,02,06,6.30
2017,03,16,02,07,6.30
2017,03,16,02,08,6.30
2017,03,16,02,09,6.20
2017,03,16,02,10,6.20
2017,03,16,02,11,6.10
2017,03,16,02,12,6.10
2017,03,16,02,13,6.00
2017,03,16,02,14,6.00
2017,03,16,02,15,6.00
2017,03,16,02,16,5.90
2017,03,16,02,17,5.90
2017,03,16,02,18,5.90
2017,03,16,02,19,5.80
2017,03,16,02,20,5.80
2017,03,16,02,21,5.80
2017,03,16,02,22,5.80
2017,03,16,02,23,5.70
2017,03,16,02,24,5.70
2017,03,16,02,25,5.70
2017,03,16,02,26,5.70
2017,03,16,02,27,5.60
2017,03,16,02,28,5.60
2017,03,16,02,29,5.60
2017,03,16,02,30,5.50
2017,03,16,02,31,5.50
2017,03,16,02,32,5.50
2017,03,16,02,33,5.50
2017,03,16,02,34,5.40
2017,03,16,02,35,5.40
2017,03,16,02,36,5.40
2017,03,16,02,37,5.30
2017,03,16,02,38,5.30
2017,03,16,02,39,5.30
2017,03,16,02,40,5.30
2017,03,16,02,41,5.30
2017,03,16,02,42,5.30
2017,03,16,02,43,5.30
2017,03,16,02,44,5.30
2017,03,16,02,45,5.30
2017,03,16,02,46,5.40
2017,03,16,02,47,5.40
2017,03,16,02,48,5.50
2017,03,16,02,49,5.50
2017,03,16,02,50,5.50
2017,03,16,02,51,5.60
2017,03,16,02,52,5.60
2017,03,16,02,53,5.60
2017,03,16,02,54,5.60
2017,03,16,02,55,5.70
2017,03,16,02,56,5.70
2017,03,16,02,57,5.70
2017,03,16,02,58,5.70
2017,03,16,02,59,5.70
2017,03,16,03,00,5.60
2017,03,16,03,01,5.60
2017,03,16,03,02,5.60
2017,03,16,03,03,5.60
2017,03,16,03,04,5.60
2017,03,16,03,05,5.60
2017,03,16,03,06,5.50
2017,03,16,03,07,5.50
2017,03,16,03,08,5.50
2017,03,16,03,09,5.40
2017,03,16,03,10,5.40
2017,03,16,03,11,5.40
2017,03,16,03,12,5.40
2017,03,16,03,13,5.40
2017,03,16,03,14,5.30
2017,03,16,03,15,5.30
2017,03,16,03,16,5.30
2017,03,16,03,17,5.20
2017,03,16,03,18,5.20
2017,03,16,03,19,5.20
2017,03,16,03,20,5.10
2017,03,16,03,21,5.10
2017,03,16,03,22,5.10
2017,03,16,03,23,5.10
2017,03,16,03,24,5.10
2017,03,16,03,25,5.10
2017,03,16,03,26,5.10
2017,03,16,03,27,5.10
2017,03,16,03,28,5.10
2017,03,16,03,29,5.20
2017,03,16,03,30,5.20
2017,03,16,03,31,5.20
2017,03,16,03,32,5.20
2017,03,16,03,33,5.20
2017,03,16,03,34,5.30
2017,03,16,03,35,5.30
2017,03,16,03,36,5.30
2017,03,16,03,37,5.30
2017,03,16,03,38,5.20
2017,03,16,03,39,5.20
2017,03,16,03,40,5.20
2017,03,16,03,41,5.20
2017,03,16,03,42,5.20
2017,03,16,03,43,5.10
2017,03,16,03,44,5.10
2017,03,16,03,45,5.10
2017,03,16,03,46,5.10
2017,03,16,03,47,5.10
2017,03,16,03,48,5.20
2017,03,16,03,49,5.20
2017,03,16,03,50,5.20
2017,03,16,03,51,5.20
2017,03,16,03,52,5.20
2017,03,16,03,53,5.30
2017,03,16,03,54,5.30
2017,03,16,03,55,5.30
2017,03,16,03,56,5.30
2017,03,16,03,57,5.20
2017,03,16,03,58,5.20
2017,03,16,03,59,5.20
2017,03,16,04,00,5.10
2017,03,16,04,01,5.10
2017,03,16,04,02,5.10
2017,03,16,04,03,5.10
2017,03,16,04,04,5.00
2017,03,16,04,05,5.00
2017,03,16,04,06,5.00
2017,03,16,04,07,4.90
2017,03,16,04,08,4.90
2017,03,16,04,09,4.90
2017,03,16,04,10,5.00
2017,03,16,04,11,4.90
2017,03,16,04,12,4.80
2017,03,16,04,13,4.80
2017,03,16,04,14,4.80
2017,03,16,04,15,4.80
2017,03,16,04,16,4.80
2017,03,16,04,17,4.60
2017,03,16,04,18,4.50
2017,03,16,04,19,4.40
2017,03,16,04,20,4.30
2017,03,16,04,21,4.30
2017,03,16,04,22,4.20
2017,03,16,04,23,4.10
2017,03,16,04,24,4.10
2017,03,16,04,25,4.00
2017,03,16,04,26,3.90
2017,03,16,04,27,3.80
2017,03,16,04,28,3.80
2017,03,16,04,29,3.80
2017,03,16,04,30,3.90
2017,03,16,04,31,3.90
2017,03,16,04,32,3.90
2017,03,16,04,33,4.00
2017,03,16,04,34,4.00
2017,03,16,04,35,4.10
2017,03,16,04,36,4.10
2017,03,16,04,37,4.00
2017,03,16,04,38,4.00
2017,03,16,04,39,4.00
2017,03,16,04,40,3.90
2017,03,16,04,41,4.00
2017,03,16,04,42,4.10
2017,03,16,04,43,4.20
2017,03,16,04,44,4.30
2017,03,16,04,45,4.20
2017,03,16,04,46,4.20
2017,03,16,04,47,4.20
2017,03,16,04,48,4.20
2017,03,16,04,49,4.10
2017,03,16,04,50,4.20
2017,03,16,04,51,4.20
2017,03,16,04,52,4.30
2017,03,16,04,53,4.40
2017,03,16,04,54,4.50
2017,03,16,04,55,4.50
2017,03,16,04,56,4.60
2017,03,16,04,57,4.60
2017,03,16,04,58,4.60
2017,03,16,04,59,4.60
2017,03,16,05,00,4.70
2017,03,16,05,01,4.70
2017,03,16,05,02,4.80
2017,03,16,05,03,4.80
2017,03,16,05,04,4.90
2017,03,16,05,05,4.90
2017,03,16,05,06,5.00
2017,03,16,05,07,4.90
2017,03,16,05,08,4.90
2017,03,16,05,09,4.90
2017,03,16,05,10,4.90
2017,03,16,05,11,4.80
2017,03,16,05,12,4.70
2017,03,16,05,13,4.50
2017,03,16,05,14,4.30
2017,03,16,05,15,4.10
2017,03,16,05,16,3.90
2017,03,16,05,17,3.80
2017,03,16,05,18,3.70
2017,03,16,05,19,3.60
2017,03,16,05,20,3.60
2017,03,16,05,21,3.60
2017,03,16,05,22,3.60
2017,03,16,05,23,3.70
2017,03,16,05,24,3.70
2017,03,16,05,25,3.80
2017,03,16,05,26,3.80
2017,03,16,05,27,3.70
2017,03,16,05,28,3.60
2017,03,16,05,29,3.60
2017,03,16,05,30,3.50
2017,03,16,05,31,3.50
2017,03,16,05,32,3.50
2017,03,16,05,33,3.40
2017,03,16,05,34,3.40
2017,03,16,05,35,3.40
2017,03,16,05,36,3.40
2017,03,16,05,37,3.40
2017,03,16,05,38,3.40
2017,03,16,05,39,3.40
2017,03,16,05,40,3.40
2017,03,16,05,41,3.40
2017,03,16,05,42,3.40
2017,03,16,05,43,3.50
2017,03,16,05,44,3.50
2017,03,16,05,45,3.50
2017,03,16,05,46,3.50
2017,03,16,05,47,3.50
2017,03,16,05,48,3.60
2017,03,16,05,49,3.70
2017,03,16,05,50,3.70
2017,03,16,05,51,3.80
2017,03,16,05,52,3.80
2017,03,16,05,53,3.80
2017,03,16,05,54,3.70
2017,03,16,05,55,3.60
2017,03,16,05,56,3.50
2017,03,16,05,57,3.50
2017,03,16,05,58,3.40
2017,03,16,05,59,3.40
2017,03,16,06,00,3.40
2017,03,16,06,01,3.40
2017,03,16,06,02,3.40
2017,03,16,06,03,3.30
2017,03,16,06,04,3.30
2017,03,16,06,05,3.30
2017,03,16,06,06,3.20
2017,03,16,06,07,3.20
2017,03,16,06,08,3.20
2017,03,16,06,09,3.20
2017,03,16,06,10,3.20
2017,03,16,06,11,3.20
2017,03,16,06,12,3.20
2017,03,16,06,13,3.20
2017,03,16,06,14,3.40
2017,03,16,06,15,3.50
2017,03,16,06,16,3.50
2017,03,16,06,17,3.60
2017,03,16,06,18,3.70
2017,03,16,06,19,3.70
2017,03,16,06,20,3.80
2017,03,16,06,21,3.80
2017,03,16,06,22,3.80
2017,03,16,06,23,3.80
2017,03,16,06,24,3.90
2017,03,16,06,25,3.90
2017,03,16,06,26,3.90
2017,03,16,06,27,3.90
2017,03,16,06,28,4.00
2017,03,16,06,29,4.00
2017,03,16,06,30,4.00
2017,03,16,06,31,4.10
2017,03,16,06,32,4.10
2017,03,16,06,33,4.10
2017,03,16,06,34,4.10
2017,03,16,06,35,4.10
2017,03,16,06,36,4.00
2017,03,16,06,37,3.90
2017,03,16,06,38,3.90
2017,03,16,06,39,3.80
2017,03,16,06,40,3.80
2017,03,16,06,41,3.70
2017,03,16,06,42,3.60
2017,03,16,06,43,3.60
2017,03,16,06,44,3.60
2017,03,16,06,45,3.70
2017,03,16,06,46,3.70
2017,03,16,06,47,3.60
2017,03,16,06,48,3.60
2017,03,16,06,49,3.60
2017,03,16,06,50,3.60
2017,03,16,06,51,3.60
2017,03,16,06,52,3.70
2017,03,16,06,53,3.70
2017,03,16,06,54,3.60
2017,03,16,06,55,3.60
2017,03,16,06,56,3.60
2017,03,16,06,57,3.60
2017,03,16,06,58,3.60
2017,03,16,06,59,3.60
2017,03,16,07,00,3.60
2017,03,16,07,01,3.60
2017,03,16,07,02,3.60
2017,03,16,07,03,3.60
2017,03,16,07,04,3.60
2017,03,16,07,05,3.60
2017,03,16,07,06,3.60
2017,03,16,07,07,3.60
2017,03,16,07,08,3.50
2017,03,16,07,09,3.60
2017,03,16,07,10,3.60
2017,03,16,07,11,3.60
2017,03,16,07,12,3.60
2017,03,16,07,13,3.60
2017,03,16,07,14,3.70
2017,03,16,07,15,3.70
2017,03,16,07,16,3.70
2017,03,16,07,17,3.70
2017,03,16,07,18,3.70
2017,03,16,07,19,3.70
2017,03,16,07,20,3.70
2017,03,16,07,21,3.70
2017,03,16,07,22,3.70
2017,03,16,07,23,3.70
2017,03,16,07,24,3.70
2017,03,16,07,25,3.70
2017,03,16,07,26,3.70
2017,03,16,07,27,3.70
2017,03,16,07,28,3.70
2017,03,16,07,29,3.60
2017,03,16,07,30,3.60
2017,03,16,07,31,3.60
2017,03,16,07,32,3.60
2017,03,16,07,33,3.60
2017,03,16,07,34,3.60
2017,03,16,07,35,3.60
2017,03,16,07,36,3.60
2017,03,16,07,37,3.60
2017,03,16,07,38,3.60
2017,03,16,07,39,3.60
2017,03,16,07,40,3.60
2017,03,16,07,41,3.70
2017,03,16,07,42,3.70
2017,03,16,07,43,3.70
2017,03,16,07,44,3.70
2017,03,16,07,45,3.70
2017,03,16,07,46,3.70
2017,03,16,07,47,3.70
2017,03,16,07,48,3.70
2017,03,16,07,49,3.70
2017,03,16,07,50,3.70
2017,03,16,07,51,3.70
2017,03,16,07,52,3.70
2017,03,16,07,53,3.70
2017,03,16,07,54,3.70
2017,03,16,07,55,3.70
2017,03,16,07,56,3.70
2017,03,16,07,57,3.60
2017,03,16,07,58,3.60
2017,03,16,07,59,3.60
2017,03,16,08,00,3.60
2017,03,16,08,01,3.60
2017,03,16,08,02,3.60
2017,03,16,08,03,3.70
2017,03,16,08,04,3.70
2017,03,16,08,05,3.70
2017,03,16,08,06,3.70
2017,03,16,08,07,3.70
2017,03,16,08,08,3.70
2017,03,16,08,09,3.70
2017,03,16,08,10,3.70
2017,03,16,08,11,3.60
2017,03,16,08,12,3.60
2017,03,16,08,13,3.60
2017,03,16,08,14,3.70
2017,03,16,08,15,3.70
2017,03,16,08,16,3.70
2017,03,16,08,17,3.70
2017,03,16,08,18,3.70
2017,03,16,08,19,3.70
2017,03,16,08,20,3.70
2017,03,16,08,21,3.70
2017,03,16,08,22,3.70
2017,03,16,08,23,3.70
2017,03,16,08,24,3.70
2017,03,16,08,25,3.70
2017,03,16,08,26,3.70
2017,03,16,08,27,3.80
2017,03,16,08,28,3.90
2017,03,16,08,29,4.00
2017,03,16,08,30,4.10
2017,03,16,08,31,4.10
2017,03,16,08,32,4.10
2017,03,16,08,33,4.10
2017,03,16,08,34,4.10
2017,03,16,08,35,4.10
2017,03,16,08,36,4.10
2017,03,16,08,37,4.00
2017,03,16,08,38,4.00
2017,03,16,08,39,4.00
2017,03,16,08,40,4.00
2017,03,16,08,41,4.10
2017,03,16,08,42,4.10
2017,03,16,08,43,4.10
2017,03,16,08,44,4.20
2017,03,16,08,45,4.20
2017,03,16,08,46,4.20
2017,03,16,08,47,4.30
2017,03,16,08,48,4.30
2017,03,16,08,49,4.40
2017,03,16,08,50,4.40
2017,03,16,08,51,4.50
2017,03,16,08,52,4.60
2017,03,16,08,53,4.70
2017,03,16,08,54,4.80
2017,03,16,08,55,4.80
2017,03,16,08,56,4.80
2017,03,16,08,57,4.90
2017,03,16,08,58,4.90
2017,03,16,08,59,5.00
2017,03,16,09,00,5.00
2017,03,16,09,01,5.00
2017,03,16,09,02,5.00
2017,03,16,09,03,5.00
2017,03,16,09,04,5.00
2017,03,16,09,05,5.00
2017,03,16,09,06,4.90
2017,03,16,09,07,5.00
2017,03,16,09,08,5.00
2017,03,16,09,09,5.10
2017,03,16,09,10,5.10
2017,03,16,09,11,5.10
2017,03,16,09,12,5.20
2017,03,16,09,13,5.20
2017,03,16,09,14,5.30
2017,03,16,09,15,5.40
2017,03,16,09,16,5.50
2017,03,16,09,17,5.50
2017,03,16,09,18,5.60
2017,03,16,09,19,5.60
2017,03,16,09,20,5.70
2017,03,16,09,21,5.70
2017,03,16,09,22,5.60
2017,03,16,09,23,5.60
2017,03,16,09,24,5.50
2017,03,16,09,25,5.50
2017,03,16,09,26,5.40
2017,03,16,09,27,5.40
2017,03,16,09,28,5.40
2017,03,16,09,29,5.40
2017,03,16,09,30,5.30
2017,03,16,09,31,5.20
2017,03,16,09,32,5.20
2017,03,16,09,33,5.10
2017,03,16,09,34,5.10
2017,03,16,09,35,5.00
2017,03,16,09,36,5.00
2017,03,16,09,37,4.90
2017,03,16,09,38,4.90
2017,03,16,09,39,4.90
2017,03,16,09,40,4.90
2017,03,16,09,41,4.90
2017,03,16,09,42,5.00
2017,03,16,09,43,5.10
2017,03,16,09,44,5.10
2017,03,16,09,45,5.20
2017,03,16,09,46,5.30
2017,03,16,09,47,5.30
2017,03,16,09,48,5.40
2017,03,16,09,49,5.40
2017,03,16,09,50,5.40
2017,03,16,09,51,5.30
2017,03,16,09,52,5.20
2017,03,16,09,53,5.20
2017,03,16,09,54,5.20
2017,03,16,09,55,5.20
2017,03,16,09,56,5.20
2017,03,16,09,57,5.20
2017,03,16,09,58,5.20
2017,03,16,09,59,5.10
2017,03,16,10,00,5.10
2017,03,16,10,01,5.10
2017,03,16,10,02,5.10
2017,03,16,10,03,5.20
2017,03,16,10,04,5.30
2017,03,16,10,05,5.40
2017,03,16,10,06,5.60
2017,03,16,10,07,5.60
2017,03,16,10,08,5.50
2017,03,16,10,09,5.40
2017,03,16,10,10,5.40
2017,03,16,10,11,5.40
2017,03,16,10,12,5.40
2017,03,16,10,13,5.40
2017,03,16,10,14,5.40
2017,03,16,10,15,5.50
2017,03,16,10,16,5.60
2017,03,16,10,17,5.70
2017,03,16,10,18,5.80
2017,03,16,10,19,5.80
2017,03,16,10,20,5.80
2017,03,16,10,21,5.80
2017,03,16,10,22,5.70
2017,03,16,10,23,5.70
2017,03,16,10,24,5.70
2017,03,16,10,25,5.70
2017,03,16,10,26,5.80
2017,03,16,10,27,5.80
2017,03,16,10,28,5.90
2017,03,16,10,29,6.00
2017,03,16,10,30,6.00
2017,03,16,10,31,6.00
2017,03,16,10,32,6.10
2017,03,16,10,33,6.10
2017,03,16,10,34,6.10
2017,03,16,10,35,6.10
2017,03,16,10,36,6.00
2017,03,16,10,37,6.00
2017,03,16,10,38,6.00
2017,03,16,10,39,6.00
2017,03,16,10,40,6.10
2017,03,16,10,41,6.20
2017,03,16,10,42,6.20
2017,03,16,10,43,6.10
2017,03,16,10,44,6.00
2017,03,16,10,45,5.90
2017,03,16,10,46,5.90
2017,03,16,10,47,5.90
2017,03,16,10,48,5.90
2017,03,16,10,49,6.00
2017,03,16,10,50,6.00
2017,03,16,10,51,5.90
2017,03,16,10,52,6.00
2017,03,16,10,53,6.00
2017,03,16,10,54,6.10
2017,03,16,10,55,6.10
2017,03,16,10,56,6.10
2017,03,16,10,57,6.10
2017,03,16,10,58,6.20
2017,03,16,10,59,6.20
2017,03,16,11,00,6.30
2017,03,16,11,01,6.30
2017,03,16,11,02,6.30
2017,03,16,11,03,6.40
2017,03,16,11,04,6.40
2017,03,16,11,05,6.40
2017,03,16,11,06,6.50
2017,03,16,11,07,6.70
2017,03,16,11,08,6.60
2017,03,16,11,09,6.60
2017,03,16,11,10,6.70
2017,03,16,11,11,6.70
2017,03,16,11,12,6.60
2017,03,16,11,13,6.50
2017,03,16,11,14,6.50
2017,03,16,11,15,6.60
2017,03,16,11,16,6.70
2017,03,16,11,17,6.60
2017,03,16,11,18,6.70
2017,03,16,11,19,6.80
2017,03,16,11,20,6.80
2017,03,16,11,21,6.80
2017,03,16,11,22,6.90
2017,03,16,11,23,6.90
2017,03,16,11,24,6.90
2017,03,16,11,25,6.80
2017,03,16,11,26,6.80
2017,03,16,11,27,6.90
2017,03,16,11,28,6.90
2017,03,16,11,29,6.90
2017,03,16,11,30,6.90
2017,03,16,11,31,6.90
2017,03,16,11,32,6.80
2017,03,16,11,33,6.70
2017,03,16,11,34,6.70
2017,03,16,11,35,6.70
2017,03,16,11,36,6.70
2017,03,16,11,37,6.70
2017,03,16,11,38,6.70
2017,03,16,11,39,6.70
2017,03,16,11,40,6.70
2017,03,16,11,41,6.70
2017,03,16,11,42,6.70
2017,03,16,11,43,6.70
2017,03,16,11,44,6.60
2017,03,16,11,45,6.50
2017,03,16,11,46,6.50
2017,03,16,11,47,6.60
2017,03,16,11,48,6.60
2017,03,16,11,49,6.60
2017,03,16,11,50,6.50
2017,03,16,11,51,6.50
2017,03,16,11,52,6.50
2017,03,16,11,53,6.40
2017,03,16,11,54,6.50
2017,03,16,11,55,6.50
2017,03,16,11,56,6.40
2017,03,16,11,57,6.40
2017,03,16,11,58,6.40
2017,03,16,11,59,6.40
2017,03,16,12,00,6.40
2017,03,16,12,01,6.40
2017,03,16,12,02,6.40
2017,03,16,12,03,6.40
2017,03,16,12,04,6.40
2017,03,16,12,05,6.40
2017,03,16,12,06,6.40
2017,03,16,12,07,6.30
2017,03,16,12,08,6.30
2017,03,16,12,09,6.40
2017,03,16,12,10,6.50
2017,03,16,12,11,6.50
2017,03,16,12,12,6.50
2017,03,16,12,13,6.50
2017,03,16,12,14,6.40
2017,03,16,12,15,6.40
2017,03,16,12,16,6.50
2017,03,16,12,17,6.50
2017,03,16,12,18,6.50
2017,03,16,12,19,6.50
2017,03,16,12,20,6.50
2017,03,16,12,21,6.60
2017,03,16,12,22,6.60
2017,03,16,12,23,6.60
2017,03,16,12,24,6.70
2017,03,16,12,25,6.80
2017,03,16,12,26,6.80
2017,03,16,12,27,6.80
2017,03,16,12,28,6.80
2017,03,16,12,29,6.80
2017,03,16,12,30,6.90
2017,03,16,12,31,6.80
2017,03,16,12,32,6.60
2017,03,16,12,33,6.50
2017,03,16,12,34,6.50
2017,03,16,12,35,6.50
2017,03,16,12,36,6.50
2017,03,16,12,37,6.60
2017,03,16,12,38,6.60
2017,03,16,12,39,6.80
2017,03,16,12,40,6.80
2017,03,16,12,41,6.80
2017,03,16,12,42,6.80
2017,03,16,12,43,6.80
2017,03,16,12,44,6.90
2017,03,16,12,45,6.90
2017,03,16,12,46,6.90
2017,03,16,12,47,6.70
2017,03,16,12,48,6.70
2017,03,16,12,49,6.80
2017,03,16,12,50,7.00
2017,03,16,12,51,7.10
2017,03,16,12,52,7.20
2017,03,16,12,53,7.20
2017,03,16,12,54,7.20
2017,03,16,12,55,7.20
2017,03,16,12,56,7.20
2017,03,16,12,57,7.20
2017,03,16,12,58,7.30
2017,03,16,12,59,7.40
2017,03,16,13,00,7.50
2017,03,16,13,01,7.60
2017,03,16,13,02,7.60
2017,03,16,13,03,7.60
2017,03,16,13,04,7.60
2017,03,16,13,05,7.70
2017,03,16,13,06,7.70
2017,03,16,13,07,7.70
2017,03,16,13,08,7.80
2017,03,16,13,09,7.80
2017,03,16,13,10,7.70
2017,03,16,13,11,7.70
2017,03,16,13,12,7.70
2017,03,16,13,13,7.70
2017,03,16,13,14,7.70
2017,03,16,13,15,7.80
2017,03,16,13,16,7.90
2017,03,16,13,17,7.90
2017,03,16,13,18,7.90
2017,03,16,13,19,7.90
2017,03,16,13,20,8.00
2017,03,16,13,21,8.00
2017,03,16,13,22,8.10
2017,03,16,13,23,8.10
2017,03,16,13,24,8.10
2017,03,16,13,25,8.20
2017,03,16,13,26,8.30
2017,03,16,13,27,8.40
2017,03,16,13,28,8.50
2017,03,16,13,29,8.60
2017,03,16,13,30,8.60
2017,03,16,13,31,8.60
2017,03,16,13,32,8.50
2017,03,16,13,33,8.40
2017,03,16,13,34,8.40
2017,03,16,13,35,8.40
2017,03,16,13,36,8.40
2017,03,16,13,37,8.50
2017,03,16,13,38,8.60
2017,03,16,13,39,8.60
2017,03,16,13,40,8.50
2017,03,16,13,41,8.40
2017,03,16,13,42,8.40
2017,03,16,13,43,8.40
2017,03,16,13,44,8.30
2017,03,16,13,45,8.20
2017,03,16,13,46,8.10
2017,03,16,13,47,8.10
2017,03,16,13,48,8.00
2017,03,16,13,49,8.00
2017,03,16,13,50,8.00
2017,03,16,13,51,7.90
2017,03,16,13,52,7.90
2017,03,16,13,53,7.90
2017,03,16,13,54,7.80
2017,03,16,13,55,7.70
2017,03,16,13,56,7.60
2017,03,16,13,57,7.60
2017,03,16,13,58,7.50
2017,03,16,13,59,7.40
2017,03,16,14,00,7.40
2017,03,16,14,01,7.40
2017,03,16,14,02,7.40
2017,03,16,14,03,7.40
2017,03,16,14,04,7.40
2017,03,16,14,05,7.40
2017,03,16,14,06,7.40
2017,03,16,14,07,7.30
2017,03,16,14,08,7.30
2017,03,16,14,09,7.40
2017,03,16,14,10,7.50
2017,03,16,14,11,7.50
2017,03,16,14,12,7.40
2017,03,16,14,13,7.40
2017,03,16,14,14,7.40
2017,03,16,14,15,7.30
2017,03,16,14,16,7.30
2017,03,16,14,17,7.30
2017,03,16,14,18,7.30
2017,03,16,14,19,7.30
2017,03,16,14,20,7.30
2017,03,16,14,21,7.30
2017,03,16,14,22,7.30
2017,03,16,14,23,7.40
2017,03,16,14,24,7.40
2017,03,16,14,25,7.40
2017,03,16,14,26,7.40
2017,03,16,14,27,7.40
2017,03,16,14,28,7.40
2017,03,16,14,29,7.40
2017,03,16,14,30,7.40
2017,03,16,14,31,7.50
2017,03,16,14,32,7.40
2017,03,16,14,33,7.40
2017,03,16,14,34,7.40
2017,03,16,14,35,7.50
2017,03,16,14,36,7.60
2017,03,16,14,37,7.60
2017,03,16,14,38,7.70
2017,03,16,14,39,7.70
2017,03,16,14,40,7.70
2017,03,16,14,41,7.70
2017,03,16,14,42,7.70
2017,03,16,14,43,7.70
2017,03,16,14,44,7.70
2017,03,16,14,45,7.80
2017,03,16,14,46,7.80
2017,03,16,14,47,7.90
2017,03,16,14,48,8.00
2017,03,16,14,49,8.00
2017,03,16,14,50,8.00
2017,03,16,14,51,8.00
2017,03,16,14,52,8.00
2017,03,16,14,53,8.00
2017,03,16,14,54,7.90
2017,03,16,14,55,7.80
2017,03,16,14,56,7.70
2017,03,16,14,57,7.70
2017,03,16,14,58,7.70
2017,03,16,14,59,7.70
2017,03,16,15,00,7.80
2017,03,16,15,01,7.80
2017,03,16,15,02,7.80
2017,03,16,15,03,7.70
2017,03,16,15,04,7.70
2017,03,16,15,05,7.70
2017,03,16,15,06,7.70
2017,03,16,15,07,7.70
2017,03,16,15,08,7.70
2017,03,16,15,09,7.70
2017,03,16,15,10,7.70
2017,03,16,15,11,7.80
2017,03,16,15,12,7.80
2017,03,16,15,13,7.90
2017,03,16,15,14,8.00
2017,03,16,15,15,8.00
2017,03,16,15,16,8.00
2017,03,16,15,17,8.00
2017,03,16,15,18,8.00
2017,03,16,15,19,8.00
2017,03,16,15,20,8.00
2017,03,16,15,21,8.10
2017,03,16,15,22,8.00
2017,03,16,15,23,8.00
2017,03,16,15,24,7.90
2017,03,16,15,25,7.90
2017,03,16,15,26,8.00
2017,03,16,15,27,8.00
2017,03,16,15,28,8.10
2017,03,16,15,29,8.20
2017,03,16,15,30,8.10
2017,03,16,15,31,8.00
2017,03,16,15,32,8.00
2017,03,16,15,33,7.90
2017,03,16,15,34,7.90
2017,03,16,15,35,7.90
2017,03,16,15,36,7.90
2017,03,16,15,37,7.90
2017,03,16,15,38,8.00
2017,03,16,15,39,8.00
2017,03,16,15,40,8.00
2017,03,16,15,41,8.00
2017,03,16,15,42,8.00
2017,03,16,15,43,8.10
2017,03,16,15,44,8.10
2017,03,16,15,45,8.30
2017,03,16,15,46,8.40
2017,03,16,15,47,8.40
2017,03,16,15,48,8.40
2017,03,16,15,49,8.40
2017,03,16,15,50,8.40
2017,03,16,15,51,8.40
2017,03,16,15,52,8.40
2017,03,16,15,53,8.50
2017,03,16,15,54,8.50
2017,03,16,15,55,8.50
2017,03,16,15,56,8.50
2017,03,16,15,57,8.50
2017,03,16,15,58,8.50
2017,03,16,15,59,8.50
2017,03,16,16,00,8.50
2017,03,16,16,01,8.40
2017,03,16,16,02,8.30
2017,03,16,16,03,8.10
2017,03,16,16,04,7.90
2017,03,16,16,05,7.80
2017,03,16,16,06,7.70
2017,03,16,16,07,7.60
2017,03,16,16,08,7.50
2017,03,16,16,09,7.50
2017,03,16,16,10,7.50
2017,03,16,16,11,7.30
2017,03,16,16,12,7.20
2017,03,16,16,13,7.20
2017,03,16,16,14,7.20
2017,03,16,16,15,7.10
2017,03,16,16,16,7.10
2017,03,16,16,17,7.00
2017,03,16,16,18,6.90
2017,03,16,16,19,6.90
2017,03,16,16,20,6.90
2017,03,16,16,21,6.90
2017,03,16,16,22,6.90
2017,03,16,16,23,6.90
2017,03,16,16,24,6.90
2017,03,16,16,25,7.00
2017,03,16,16,26,7.10
2017,03,16,16,27,7.10
2017,03,16,16,28,7.10
2017,03,16,16,29,7.20
2017,03,16,16,30,7.20
2017,03,16,16,31,7.20
2017,03,16,16,32,7.30
2017,03,16,16,33,7.30
2017,03,16,16,34,7.40
2017,03,16,16,35,7.40
2017,03,16,16,36,7.40
2017,03,16,16,37,7.40
2017,03,16,16,38,7.50
2017,03,16,16,39,7.50
2017,03,16,16,40,7.50
2017,03,16,16,41,7.50
2017,03,16,16,42,7.50
2017,03,16,16,43,7.50
2017,03,16,16,44,7.50
2017,03,16,16,45,7.40
2017,03,16,16,46,7.40
2017,03,16,16,47,7.50
2017,03,16,16,48,7.50
2017,03,16,16,49,7.50
2017,03,16,16,50,7.50
2017,03,16,16,51,7.50
2017,03,16,16,52,7.60
2017,03,16,16,53,7.70
2017,03,16,16,54,7.70
2017,03,16,16,55,7.80
2017,03,16,16,56,7.80
2017,03,16,16,57,7.70
2017,03,16,16,58,7.70
2017,03,16,16,59,7.70
2017,03,16,17,00,7.60
2017,03,16,17,01,7.60
2017,03,16,17,02,7.60
2017,03,16,17,03,7.50
2017,03,16,17,04,7.50
2017,03,16,17,05,7.50
2017,03,16,17,06,7.60
2017,03,16,17,07,7.60
2017,03,16,17,08,7.60
2017,03,16,17,09,7.60
2017,03,16,17,10,7.60
2017,03,16,17,11,7.60
2017,03,16,17,12,7.70
2017,03,16,17,13,7.70
2017,03,16,17,14,7.70
2017,03,16,17,15,7.60
2017,03,16,17,16,7.50
2017,03,16,17,17,7.40
2017,03,16,17,18,7.40
2017,03,16,17,19,7.40
2017,03,16,17,20,7.40
2017,03,16,17,21,7.40
2017,03,16,17,22,7.40
2017,03,16,17,23,7.40
2017,03,16,17,24,7.40
2017,03,16,17,25,7.40
2017,03,16,17,26,7.40
2017,03,16,17,27,7.40
2017,03,16,17,28,7.50
2017,03,16,17,29,7.40
2017,03,16,17,30,7.50
2017,03,16,17,31,7.50
2017,03,16,17,32,7.50
2017,03,16,17,33,7.50
2017,03,16,17,34,7.60
2017,03,16,17,35,7.60
2017,03,16,17,36,7.60
2017,03,16,17,37,7.60
2017,03,16,17,38,7.70
2017,03,16,17,39,7.70
2017,03,16,17,40,7.80
2017,03,16,17,41,7.80
2017,03,16,17,42,7.80
2017,03,16,17,43,7.80
2017,03,16,17,44,7.70
2017,03,16,17,45,7.70
2017,03,16,17,46,7.70
2017,03,16,17,47,7.60
2017,03,16,17,48,7.60
2017,03,16,17,49,7.60
2017,03,16,17,50,7.60
2017,03,16,17,51,7.60
2017,03,16,17,52,7.50
2017,03,16,17,53,7.50
2017,03,16,17,54,7.40
2017,03,16,17,55,7.40
2017,03,16,17,56,7.40
2017,03,16,17,57,7.40
2017,03,16,17,58,7.30
2017,03,16,17,59,7.30
2017,03,16,18,00,7.30
2017,03,16,18,01,7.30
2017,03,16,18,02,7.30
2017,03,16,18,03,7.20
2017,03,16,18,04,7.20
2017,03,16,18,05,7.20
2017,03,16,18,06,7.20